Flag for U.S.A. Weather past 2 weeks in Leawood, Kansas, U.S.A.

Now
63 °F

Fog.


Feels Like: 63 °F
Forecast: 61 / 74 °F
Wind: 10 mph from East

Location: Johnson County Executive Airport

Current Time: Sep 18, 2014 at 2:51:53 AM

Latest Report: Sep 18, 2014 at 1:53 AM


Visibility: 4 mi

Pressure: 29.92 "Hg

Humidity: 100%

Dew point: 63 °F

Location of LeawoodLocation

Historic Weather in Leawood — Graph

°F

Leawood temperature yesterday

Maximum temperature yesterday: 73 °F (at 3:53 PM)
Minimum temperature yesterday: 62 °F (at 12:53 AM)
Average temperature yesterday: 67 °F

Past Weeks' High & Low Weather Summary

 TemperatureHumidityPressure
High91 °F (Sep 4, 2:53 PM)100% (Sep 11, 6:53 AM)30.42 "Hg (Sep 11, 6:53 AM)
Low40 °F (Sep 13, 5:53 AM)46% (Sep 6, 3:53 PM)29.52 "Hg (Sep 10, 12:53 AM)
Average66 °F79%30.05 "Hg
* Reported Sep 3 1:53 AM — Sep 18 1:53 AM, Leawood, Weather by CustomWeather, © 2014

Note: Actual official high and low records may vary slightly from our data, if they occured in-between our weather recording intervals... More about our weather records

Advertising

Leawood weather history for previous 24 hours

 ConditionsComfort  
Time TempWeatherWind HumidityBarometerVisibility
1:53 AM
Sep 18
63 °FFog.10 mph100%29.92 "Hg4 mi
12:53 AM64 °FFog.8 mph100%29.91 "Hg1 mi
11:53 PM
Sep 17
64 °FFog.6 mph100%29.93 "Hg0 mi
10:53 PM64 °FFog.3 mph100%29.93 "Hg5 mi
9:53 PM66 °FFog.5 mph96%29.91 "Hg4 mi
8:53 PM66 °FPassing clouds.5 mph93%29.89 "Hg10 mi
7:53 PM68 °FPassing clouds.3 mph87%29.88 "Hg10 mi
6:53 PM70 °FOvercast.6 mph84%29.87 "Hg10 mi
5:53 PM71 °FOvercast.6 mph84%29.87 "Hg10 mi
4:53 PM72 °FOvercast.8 mph81%29.87 "Hg10 mi
3:53 PM73 °FOvercast.7 mph81%29.88 "Hg10 mi
2:53 PM72 °FMostly cloudy.8 mph84%29.88 "Hg10 mi
1:53 PM72 °FOvercast.6 mph87%29.89 "Hg9 mi
12:53 PM71 °FMostly cloudy.5 mph90%29.90 "Hg8 mi
11:53 AM70 °FMostly cloudy.No wind90%29.91 "Hg7 mi
10:53 AM67 °FFog.3 mph100%29.91 "Hg1 mi
9:58 AM66 °FMostly cloudy.No wind100%29.93 "Hg7 mi
8:53 AM64 °FFog.No wind100%29.91 "Hg6 mi
7:53 AM63 °FFog.3 mph100%29.91 "Hg6 mi
6:53 AM64 °FLow clouds.6 mph100%29.89 "Hg9 mi
6:02 AM64 °FThundershowers. Mostly cloudy.5 mph100%29.90 "Hg7 mi
5:04 AM62 °FStrong thunderstorms. Fog.3 mph96%29.94 "Hg1 mi
3:53 AM62 °FThundershowers. Mostly cloudy.8 mph93%29.93 "Hg8 mi
2:53 AM63 °FOvercast.12 mph87%29.95 "Hg10 mi
Weather by CustomWeather, © 2014

See weather overviewHow to use our weather pages